![]() |
EMODnet Physics ERDDAP
Easier access to scientific data |
log in|
Brought to you by EMODnet Physics |
| Dataset Title: | NDBC - Collection of dew point temperature (DEWT) TimeSeries - IN SITU MultiPointTimeSeriesObservation
|
| Institution: | NDBC (Dataset ID: TS_DEWT_NDBC) |
| Information: | Summary
| License
| FGDC
| ISO 19115
| Metadata
| Background
| Subset
| Data Access Form
| Make a graph
|
| Name | Last modified | Size | Description | |
|---|---|---|---|---|
| Parent Directory | - | - | ||
| 45174_TS_DEWT_042018.nc | 26-Dec-2024 19:48 | 1143702 | ||
| 45174_TS_DEWT_042019.nc | 26-Dec-2024 19:51 | 1143988 | ||
| 45174_TS_DEWT_052016.nc | 26-Dec-2024 19:42 | 915592 | ||
| 45174_TS_DEWT_052017.nc | 26-Dec-2024 19:45 | 419926 | ||
| 45174_TS_DEWT_052018.nc | 26-Dec-2024 19:48 | 936777 | ||
| 45174_TS_DEWT_052019.nc | 26-Dec-2024 19:51 | 1483343 | ||
| 45174_TS_DEWT_052021.nc | 26-Dec-2024 19:56 | 1646769 | ||
| 45174_TS_DEWT_052023.nc | 26-Dec-2024 20:02 | 1160759 | ||
| 45174_TS_DEWT_062016.nc | 26-Dec-2024 19:43 | 934028 | ||
| 45174_TS_DEWT_062017.nc | 26-Dec-2024 19:45 | 1169800 | ||
| 45174_TS_DEWT_062018.nc | 26-Dec-2024 19:49 | 1491213 | ||
| 45174_TS_DEWT_062019.nc | 26-Dec-2024 19:52 | 1166098 | ||
| 45174_TS_DEWT_062023.nc | 26-Dec-2024 20:02 | 1013383 | ||
| 45174_TS_DEWT_072016.nc | 26-Dec-2024 19:43 | 1486312 | ||
| 45174_TS_DEWT_072017.nc | 26-Dec-2024 19:46 | 1646751 | ||
| 45174_TS_DEWT_072018.nc | 26-Dec-2024 19:49 | 1176256 | ||
| 45174_TS_DEWT_072020.nc | 26-Dec-2024 19:54 | 933189 | ||
| 45174_TS_DEWT_072023.nc | 26-Dec-2024 20:03 | 1485989 | ||
| 45174_TS_DEWT_082015.nc | 26-Dec-2024 19:40 | 1495805 | ||
| 45174_TS_DEWT_082016.nc | 26-Dec-2024 19:44 | 1174601 | ||
| 45174_TS_DEWT_082017.nc | 26-Dec-2024 19:46 | 935807 | ||
| 45174_TS_DEWT_082018.nc | 26-Dec-2024 19:49 | 1486335 | ||
| 45174_TS_DEWT_082020.nc | 26-Dec-2024 19:55 | 1646646 | ||
| 45174_TS_DEWT_082023.nc | 26-Dec-2024 20:03 | 1173017 | ||
| 45174_TS_DEWT_092015.nc | 26-Dec-2024 19:41 | 935683 | ||
| 45174_TS_DEWT_092016.nc | 26-Dec-2024 19:44 | 1497264 | ||
| 45174_TS_DEWT_092017.nc | 26-Dec-2024 19:47 | 1497088 | ||
| 45174_TS_DEWT_092018.nc | 26-Dec-2024 19:50 | 1169522 | ||
| 45174_TS_DEWT_092020.nc | 26-Dec-2024 19:55 | 443135 | ||
| 45174_TS_DEWT_092022.nc | 26-Dec-2024 20:01 | 932089 | ||
| 45174_TS_DEWT_092023.nc | 26-Dec-2024 20:04 | 1647432 | ||
| 45174_TS_DEWT_092024.nc | 10-Jan-2025 21:53 | 1646927 | ||
| 45174_TS_DEWT_092025.nc | 19-Jan-2026 23:06 | 1168149 | ||
| 45174_TS_DEWT_102015.nc | 26-Dec-2024 19:41 | 596414 | ||
| 45174_TS_DEWT_102016.nc | 26-Dec-2024 19:44 | 938429 | ||
| 45174_TS_DEWT_102017.nc | 26-Dec-2024 19:47 | 1173300 | ||
| 45174_TS_DEWT_102018.nc | 26-Dec-2024 19:50 | 1647598 | ||
| 45174_TS_DEWT_102020.nc | 26-Dec-2024 19:56 | 1647205 | ||
| 45174_TS_DEWT_102022.nc | 26-Dec-2024 20:01 | 1166916 | ||
| 45174_TS_DEWT_102023.nc | 26-Dec-2024 20:04 | 1014695 | ||
| 45174_TS_DEWT_102024.nc | 12-Jan-2025 23:34 | 1012368 | ||
| 45174_TS_DEWT_112015.nc | 26-Dec-2024 19:42 | 1486652 | ||
| 45174_TS_DEWT_112017.nc | 26-Dec-2024 19:47 | 1495596 | ||
| 45174_TS_DEWT_112018.nc | 26-Dec-2024 19:51 | 1496087 | ||
| 45174_TS_DEWT_112020.nc | 26-Dec-2024 19:56 | 1480643 | ||
| 45174_TS_DEWT_112022.nc | 26-Dec-2024 20:02 | 1013751 | ||
| 45174_TS_DEWT_112023.nc | 26-Dec-2024 20:05 | 1496021 | ||
| 45174_TS_DEWT_112024.nc | 20-Jan-2025 06:10 | 1492651 | ||